Weather in Belomestnaya Kriusha

Russia / Tambov Oblast     52°47′20″N   41°08′40″E
temp.,
°C
wind,
m/s
gust,
m/s
humid.,
%
clouds,
%
prec.,
mm/h
press.,
hPa
HPBL,
m
3 march, wed
wed300:00−1nw5119599 0.1 1008327
03:00−4nw5109674 0.1 1010261
06:00−2nw6129486 0.1 1011614
09:00−3nnw7118793 0.4 1013848
12:00−4nw6108834 0.0 1015646
15:00−3nw7118561 0.0 1016811
18:00−5w4109171 0.0 1016275
21:00−3w6129482 0.1 1016455
4 march, thu
thu400:00−3w5119097 0.1 1014414
03:00−2wsw6129398 0.2 1012612
06:00−3wsw71590100 0.0 1010457
09:00−2wsw81592100 0.1 1008528
12:00+1wsw9158489 0.0 1006788
15:00+1wsw8158590 0.0 1005830
18:000wsw6158797 0.0 1003743
21:00+1wsw5139199 0.0 1002586
5 march, fri
fri500:00+1wsw61297100 0.4 1000536
03:00+1wsw71494100 0.9 1000561
06:000wsw71296100 0.2 1000575
09:000w71197100 0.4 1003696
12:00−2nnw4690100 0.2 1006580
15:00−2nnw4586100 0.3 1009707
18:00−5nnw3593100 0.0 1010162
21:00−6n3493100 0.0 1012131
6 march, sat
sat600:00−7n2394100 0.0 101396
03:00−8n239397 0.0 101356
06:00−9nw239375 0.0 101446
09:00−8nw469338 0.0 1015252
12:00−7nw468819 0.0 1016323
15:00−6nw46859 0.0 1016468
18:00−9nw23920 0.0 101672
21:00−10nw22920 0.0 101733
7 march, sun
sun700:00−10wnw22924 0.0 101730
03:00−10sw35928 0.0 101793
06:00−10sw510940 0.0 1015244
09:00−7sw8158220 0.0 1012738
12:00−4sw101670100 0.0 10101064
15:00−3sw101868100 0.0 10061218
18:00−3sw101983100 0.1 10031234
21:00−2wsw101883100 0.1 10011046